Details From KLAS - Mc Carran Intl
To KPSP - Palm Springs Intl
Flight Number -
Tags Real Decoded
Created
Modified
Stats Distance 150 nm / 277 km
Max Altitude 0 ft / 0 m
Waypoints 2
Social Downloads 2
Likes 0
Share VATSIM

Download

Looking for another format? Having issues loading an existing format? Contact us
Advertisement - Login to hide

Notes

Decoded

Route

KLAS KPSP

ID Type Via Altitude Latitude Longitude Leg Dist Tot Dist Heading (true) Name
O KLAS APT - 0 ft / 0 m 36.07533˚ -115.17037˚ - 0 nm - -
O KPSP APT - 0 ft / 0 m 33.83517˚ -116.50967˚ 149 nm 149 nm 206° / 206° -

Altitude Profile

Advertisement - Login to hide

KLAS

Details ICAO KLAS (LAS)
Name Mc Carran Intl
Region United States
Timezone America/Los_Angeles (UTC-7.0)
Stats Elevation 2,141 ft / 653 m (AMSL)
Location 36.080975° -115.153446°
Runways 4
Magnetic Variation 11.613° E

METAR

KLAS 251756Z 22010KT 10SM FEW130 29/01 A2991 RMK AO2 SLP102 T02940006 10294 20228 58005

Decode

TAF

KLAS 251733Z 2518/2624 19015G23KT P6SM SKC FM252200 20023G33KT P6SM SKC FM260500 21013KT P6SM SKC FM261400 VRB06KT P6SM SKC FM261900 19013G20KT P6SM FEW120

Decode

Departure Runways

ID Width Length Bearing (true) Bearing (mag) Surface Threshold Offset Overrun Length
01L 151 ft / 46 m 9,783 ft / 2,982 m 24.85° 13.24° Concrete 584 ft / 178 m 410 ft / 125 m
01R 151 ft / 46 m 9,791 ft / 2,984 m 24.84° 13.23° Concrete 492 ft / 150 m 394 ft / 120 m
07L 151 ft / 46 m 14,833 ft / 4,521 m 89.89° 78.28° Asphalt 2,477 ft / 755 m 374 ft / 114 m
07R 151 ft / 46 m 10,503 ft / 3,201 m 89.92° 78.31° Asphalt 0 ft / 0 m 390 ft / 119 m
19L 151 ft / 46 m 9,791 ft / 2,984 m 204.84° 193.23° Concrete 879 ft / 268 m 410 ft / 125 m
19R 151 ft / 46 m 9,783 ft / 2,982 m 204.86° 193.25° Concrete 771 ft / 235 m 410 ft / 125 m
25L 151 ft / 46 m 10,503 ft / 3,201 m 269.94° 258.33° Asphalt 0 ft / 0 m 410 ft / 125 m
25R 151 ft / 46 m 14,833 ft / 4,521 m 269.92° 258.31° Asphalt 1,398 ft / 426 m 623 ft / 190 m

KPSP

Details ICAO KPSP (PSP)
Name Palm Springs Intl
Region United States
Timezone America/Los_Angeles (UTC-7.0)
Stats Elevation 477 ft / 145 m (AMSL)
Location 33.829677° -116.506218°
Runways 2
Magnetic Variation 11.541° E

METAR

KPSP 251753Z 32011G19KT 10SM CLR 27/07 A2996 RMK AO2 SLP142 T02670067 10267 20189 51005

Decode

TAF

TAF KPSP 251734Z 2518/2618 32012G20KT P6SM SKC FM252200 32020G30KT P6SM SKC FM260800 32012G20KT P6SM SKC FM261200 29006KT P6SM SKC FM261700 32015G25KT P6SM SKC

Decode

Destination Runways

ID Width Length Bearing (true) Bearing (mag) Surface Threshold Offset Overrun Length
13L 75 ft / 23 m 4,958 ft / 1,511 m 143.52° 131.98° Asphalt 0 ft / 0 m 151 ft / 46 m
13R 151 ft / 46 m 10,012 ft / 3,052 m 143.52° 131.98° Asphalt 2,999 ft / 914 m 200 ft / 61 m
31L 151 ft / 46 m 10,012 ft / 3,052 m 323.53° 311.99° Asphalt 1,499 ft / 457 m 200 ft / 61 m
31R 75 ft / 23 m 4,958 ft / 1,511 m 323.53° 311.99° Asphalt 0 ft / 0 m 151 ft / 46 m

Popular Alternatives